Forecast Directory
U.S. Alerts
El Dorado Weather Logo
U.S. Radar Loop Conditions Map

U.S. Color Satellite North America Color Infrared Animated Satellite Loop

Interactive Wx Map Live U.S. Google Map Radar Thumbnail Image

US Precipitation 1 day, 24 hour precipitation map

US Temperatures US Conditions Map

US Climate Data US Conditions Map


NOAA NWS Hourly Roundups by Site
Regional Weather Roundup for Sacramento, CA
Select Site:  

000
ASUS46 KSTO 250315
RWRCA

NORTHERN AND CENTRAL CA REGIONAL WEATHER ROUNDUP
NATIONAL WEATHER SERVICE SACRAMENTO CA
800 PM PDT THU JUN 24 2021

NOTE: FAIR INDICATES FEW OR NO CLOUDS BELOW 12,000 FEET WITH NO
SIGNIFICANT WEATHER AND/OR OBSTRUCTIONS TO VISIBILITY.

CAZ001-003-250400-
NORTHWEST AREA

CITY           SKY/WX    TMP DP  RH WIND       PRES   REMARKS
UKIAH          PTCLDY    81  51  35 N8        29.95R
$$

CAZ006-505>513-250400-
BAY AREA

CITY           SKY/WX    TMP DP  RH WIND       PRES   REMARKS
SANTA ROSA     CLEAR     62  53  72 S12       30.00R
SAN RAFAEL     N/A       68  MM  MM MISG
NAPA           CLEAR     66  53  63 W17       29.97S
CONCORD        CLEAR     69  50  50 W13       29.97R
OAKLAND CITY   N/A       64  MM  MM MISG
OAKLAND        PTCLDY    63  52  67 W15       30.02S
SAN FRAN CITY  N/A       59  MM  74 MISG
SAN FRAN ARPT  PTCLDY    65  52  62 W17       30.00F
LIVERMORE      CLEAR     65  51  60 W15       29.98R
HAYWARD        CLEAR     62  53  72 W15       30.01S
REDWOOD CITY   N/A       66  MM  62 MISG
MOFFETT ARPT   CLEAR     66  54  63 N13       30.00S
SAN JOSE ARPT  PTCLDY    66  53  63 N12       30.00R
$$
CAZ034-037-514>518-250400-
CENTRAL COAST

CITY           SKY/WX    TMP DP  RH WIND       PRES   REMARKS
WATSONVILLE    CLEAR     61  52  72 W8        30.04R
SALINAS        PTCLDY    64  53  67 NW12      30.03R
MONTEREY       MOCLDY    64  54  69 W8        30.05R
SAN LUIS OBISP CLEAR     63  54  72 NW13      30.01R
SANTA MARIA    CLEAR     61  53  75 NW12      30.03R
HALF MOON BAY  FAIR      59  54  82 W6        30.04S
$$
CAZ015-016-250400-
NORTHERN SACRAMENTO VALLEY

CITY           SKY/WX    TMP DP  RH WIND       PRES   REMARKS
REDDING        MOCLDY    87  50  27 S9G17     29.91R
RED BLUFF      CLOUDY    86  51  29 S8        29.89F
$$
CAZ016>018-250400-
SOUTHERN SACRAMENTO VALLEY

CITY           SKY/WX    TMP DP  RH WIND       PRES   REMARKS
AUBURN         CLEAR     79  46  31 W6        29.98R
BEALE AFB      CLOUDY    86  53  31 CALM      29.89R
LINCOLN        FAIR      82  48  30 SW9       29.90R
SAC INTL ARPT  PTCLDY    78  54  43 S12       29.90R
MATHER AIRPORT PTCLDY    79  50  36 SW16      29.90R
DOWNTOWN SAC   N/A       76  MM  MM MISG
SAC EXEC ARPT  CLEAR     74  54  49 S9G20     29.92R
VACAVILLE      CLEAR     81  49  32 SW8       29.91R
TRAVIS AFB     CLEAR     72  52  48 SW24      29.91S
$$
CAZ019>021-250400-
SAN JOAQUIN VALLEY

CITY           SKY/WX    TMP DP  RH WIND       PRES   REMARKS
STOCKTON       CLEAR     73  53  49 NW15      29.93R
MODESTO        CLEAR     79  52  38 NW18      29.90R
MERCED         CLEAR     83  58  42 NW9       29.89R
LEMOORE        CLEAR     86  54  33 N16       29.89R
FRESNO         PTCLDY    88  52  29 NW14      29.88R
HANFORD        CLEAR     87  55  33 NW9       29.88R
PORTERVILLE      N/A     87  56  34 N7        29.89R
BAKERSFIELD    CLEAR     90  46  21 N8        29.87R
$$
CAZ011-012-071-250400-
NORTHERN MOUNTAINS

CITY           SKY/WX    TMP DP  RH WIND       PRES   REMARKS
YREKA          MOCLDY    85  46  25 E14G28    30.00R
MOUNT SHASTA   LGT RAIN  71  51  49 VRB3      30.12R
ALTURAS        MOCLDY    71  50  47 W3        30.09R
$$
CAZ011-012-071-250400-
SIERRA NEVADA MTNS

CITY           SKY/WX    TMP DP  RH WIND       PRES   REMARKS
BLUE CANYON    MOCLDY    63  55  75 N5        30.20R
TRUCKEE        CLOUDY    61  48  63 N5        30.25R
TAHOE VLY ARPT MOCLDY    63  44  50 CALM      30.23R
$$


 

View Past Reports for Sacramento, CA.

Products Courtesy of NOAA-NWS
NWS Information Parsing Script by Ken True at Saratoga Weather - Script by SE Lincoln Weather.



Contact Us | Mobile
Never base any life decisions on weather information from this site or anywhere over the Internet.
Site is dedicated to our Lord & Savior Jesus Christ | Random Quotes of Jesus

Copyright © 2021 El Dorado Weather, Inc. | Site Designed By:  El Dorado Weather